CAPE
0 0 0 0 0 0 0 0 0 0 0 0 0 0 0 0 0 0 0 0 0 0 0 0 0 0 0 0 0 0 117 707 1090 1231 1130 1440 1727 1892 1846 1834 1752 1752 1906 2113 2074 2088 2234 2396 2474 2445 2342 2242 2110 1976 1914 1872 1700 1559 1524 1469 1459 1309 1121 721 720 801 676 761 780 974 1001 1091 1136 1102 921 853 958 1032 1052 957 878 828 814 730 806 770
0 0 0 0 0 0 0 0 0 0 0 0 0 0 0 0 0 0 0 0 0 0 0 0 0 0 0 0 0 0 0 747 1132 1240 1165 1293 1410 1704 1785 1799 1684 1662 1851 2040 2121 2279 2321 2294 2352 2385 2274 2145 2045 1938 1870 1713 1635 1656 1566 1479 1397 1162 1029 782 924 859 733 738 649 791 942 987 885 750 759 778 848 983 1019 949 882 862 813 774 760 706
0 0 0 0 0 0 0 0 0 0 0 0 0 0 0 0 0 0 0 0 0 0 0 0 0 0 0 0 0 0 0 0 1029 1124 1208 1207 1241 1532 1565 1620 1569 1563 1769 1821 1865 2270 2346 2231 2160 2105 2044 1967 1838 1881 1794 1713 1705 1624 1511 1411 1335 983 740 795 957 671 774 664 510 560 712 749 671 758 807 773 847 891 848 841 852 825 768 740 691 643
0 0 0 0 0 0 0 0 0 0 0 0 0 0 0 0 0 0 0 0 0 0 0 0 0 0 0 0 0 0 0 0 0 902 1065 1001 1152 1393 1308 1429 1372 1460 1585 1532 1870 2128 2158 2220 2205 2135 2017 1871 1809 1882 1850 1758 1591 1518 1364 1403 1370 1089 833 884 784 677 672 715 686 648 680 739 663 761 800 828 864 968 908 876 861 874 807 790 694 588
0 0 0 0 0 0 0 0 0 0 0 0 0 0 0 0 0 0 0 0 0 0 0 0 0 0 0 0 0 0 0 0 0 104 888 1008 1120 1179 1169 1298 1309 1359 1491 1390 1652 1774 2053 2170 2143 2045 1952 1844 1793 1802 1717 1641 1470 1392 1455 1468 1382 1226 822 959 826 750 777 729 765 775 674 690 664 676 746 768 923 993 910 880 822 848 761 770 699 523
0 0 0 0 0 0 0 0 0 0 0 0 0 0 0 0 0 0 0 0 0 0 0 0 0 0 0 0 0 0 0 0 0 386 880 1024 963 1097 1114 1260 1332 1296 1328 1345 1518 1716 2014 2023 2047 2016 1946 1929 1944 1870 1661 1580 1409 1415 1472 1455 1395 1079 709 1023 925 898 920 863 875 924 744 696 701 632 736 751 861 932 917 902 852 829 755 715 556 493
0 0 0 0 0 0 0 0 0 0 0 0 0 0 0 0 0 0 0 0 0 0 0 0 0 0 0 0 0 0 0 0 0 0 0 898 1049 998 1018 1098 1192 1263 1203 1276 1481 1788 2039 2146 2119 2109 2084 2100 2130 1928 1918 1634 1489 1429 1470 1451 1338 1203 823 940 916 919 952 975 1003 971 815 649 678 699 756 778 792 845 904 893 855 830 776 755 554 600
0 0 0 0 0 0 0 0 0 0 0 0 0 0 0 0 0 0 0 0 0 0 0 0 0 0 0 0 0 1 4 1 0 0 42 0 4 1001 945 940 985 951 1114 1370 1615 1805 2072 2196 2168 2183 2237 2255 2225 2008 1990 1669 1470 1522 1521 1526 1428 1418 1148 1054 1094 956 836 904 1034 992 796 660 648 647 657 694 728 828 780 820 784 814 768 751 615 655
0 0 0 0 0 0 0 0 0 0 0 0 0 0 0 0 0 0 0 0 0 0 0 0 0 0 0 0 0 0 146 255 248 352 876 1031 996 942 883 1095 1343 1400 1384 1449 1574 1724 2064 2212 2281 2287 2294 2321 2257 1882 1883 1626 1590 1566 1652 1604 1647 1610 1485 1320 1332 1314 1171 1115 1019 931 761 622 588 621 601 622 666 819 829 803 721 814 858 734 640 635
0 0 0 0 0 0 0 0 0 0 0 0 0 0 0 0 0 0 0 0 0 0 0 0 0 0 0 92 449 342 339 194 413 882 1221 1210 1220 1286 1360 1489 1590 1642 1648 1639 1628 1571 1916 2259 2398 2395 2359 2396 2340 1825 1240 973 1458 1396 1464 1563 1616 1630 1541 1403 1364 1336 1245 1142 1048 937 799 655 546 560 567 574 612 750 860 842 864 898 802 650 638 675
0 0 0 0 0 0 0 0 0 0 0 0 0 0 0 0 0 0 0 0 0 0 0 0 0 0 0 483 728 821 405 375 552 1087 1255 1222 1381 1379 1484 1474 1569 1673 1808 1852 1849 1833 1802 1869 2189 2328 2430 2479 2330 1944 1428 1004 1165 1418 1270 1211 1370 1568 1497 1434 1406 1335 1265 1127 990 944 836 674 565 568 558 554 615 736 818 886 882 792 651 646 760 703
0 0 0 0 0 0 0 0 0 0 0 0 0 0 0 0 0 0 0 0 0 0 0 0 0 0 0 172 791 1040 1072 854 759 1171 1225 1294 1392 1455 1534 1605 1679 1806 1924 1975 1991 2007 1964 1924 1826 1741 1884 2026 2146 1997 1725 883 1038 1146 1159 1128 1273 1375 1357 1463 1423 1410 1334 1152 988 843 794 724 633 582 593 567 638 737 776 729 674 598 620 632 682 589
0 0 0 0 0 0 0 0 0 0 0 0 0 0 0 0 0 0 0 0 0 0 0 0 0 0 115 383 532 1155 1145 1187 1278 1181 1213 1356 1316 1368 1499 1507 1489 1578 1727 1800 1889 1950 1897 1901 1851 1726 1676 1631 1748 1795 1449 909 928 1111 1029 1176 1279 1247 1339 1512 1574 1514 1407 1298 1166 1027 918 821 660 599 636 648 649 724 694 645 686 589 589 598 638 641
0 0 0 0 0 0 0 0 0 0 0 0 0 0 0 0 0 0 0 0 0 0 0 0 0 0 429 296 262 1196 1247 1250 1214 1251 1228 1328 1356 1283 1317 1415 1499 1547 1519 1534 1518 1492 1606 1615 1658 1628 1569 1516 1473 1433 1321 1143 891 708 973 1027 1144 1442 1571 1701 1712 1570 1497 1391 1279 1128 996 872 723 677 709 681 637 649 688 656 649 560 460 611 637 712
0 0 0 0 0 0 0 0 0 0 0 0 0 0 0 0 0 0 0 0 0 0 0 0 0 0 310 176 108 976 1151 1177 1181 1204 1214 1219 1199 1236 1233 1210 1220 1229 1318 1373 1366 1238 1224 1346 1444 1491 1477 1483 1394 1255 1096 876 673 749 842 1069 1157 1294 1547 1668 1666 1572 1538 1410 1262 1123 1005 924 819 757 714 697 860 868 755 550 525 417 490 630 740 785
0 0 0 0 0 0 0 0 0 0 0 0 0 0 0 0 0 0 0 0 0 0 0 0 0 248 333 160 607 584 717 1018 1111 1065 1047 936 924 911 838 965 1103 1110 1130 1128 1170 1246 1246 1251 1202 1077 967 1060 1056 1010 867 708 557 630 733 837 1186 1280 1261 1360 1396 1346 1302 1376 1258 1130 1031 973 913 762 641 698 683 650 632 676 568 536 596 680 732 636
0 0 0 0 0 0 0 0 0 0 0 0 0 0 0 0 0 0 0 0 0 0 0 253 200 297 426 415 527 676 691 820 899 902 876 774 676 664 681 746 763 876 938 902 962 1072 1075 1048 1017 857 856 838 806 753 703 652 625 628 723 687 851 1005 1288 1302 1145 1030 1097 1148 1121 1076 1011 895 669 732 699 845 729 519 818 841 741 592 586 619 635 624
0 0 0 0 0 0 0 0 0 0 0 0 0 0 0 0 0 0 0 0 0 0 0 3 475 340 284 298 502 671 577 746 816 788 748 667 652 666 722 728 684 694 720 807 902 928 846 852 884 792 677 632 699 725 644 596 564 594 505 762 749 783 879 1067 1139 1008 889 902 1055 1007 1029 1034 792 699 677 858 825 671 887 729 626 579 451 564 565 578
0 0 0 0 0 3 1 0 0 0 0 0 0 0 0 0 0 0 0 0 0 0 0 0 240 194 230 362 404 712 627 732 690 726 780 601 627 659 739 778 746 677 674 723 709 808 865 639 613 656 723 627 526 570 635 639 586 626 590 150 458 502 525 620 831 814 880 910 948 914 938 916 843 782 738 853 840 632 825 542 512 579 505 507 490 581
0 0 0 0 1 7 2 0 0 0 0 0 0 0 0 0 0 0 0 0 0 0 0 8 31 53 210 282 472 577 617 599 538 627 483 640 571 690 638 631 655 611 573 696 869 828 617 595 630 615 630 602 656 684 676 586 466 474 449 555 682 638 537 540 591 824 945 953 908 912 843 835 880 972 890 832 808 711 644 541 447 410 378 375 489 511
0 0 0 0 1 3 5 0 0 0 0 0 0 0 0 0 0 0 0 0 0 0 0 0 25 76 188 265 404 621 616 540 597 527 500 383 582 539 602 707 645 684 692 695 781 739 693 621 649 639 605 599 688 712 639 554 520 605 705 752 635 649 750 659 636 736 830 971 907 913 874 874 894 964 954 932 854 687 636 497 408 354 472 360 601 553
0 0 1 0 0 1 12 14 1 6 10 4 0 0 0 0 0 0 0 0 0 0 0 0 10 82 192 268 394 485 489 496 520 470 427 417 472 588 532 485 510 419 682 665 762 735 565 651 713 796 757 644 660 692 671 702 715 750 849 895 908 764 648 701 707 762 847 1043 968 919 902 885 881 916 959 903 796 667 500 341 26 276 360 429 380 437
0 0 1 5 0 1 7 13 29 13 12 14 3 81 1 0 0 0 0 0 0 0 0 0 116 74 64 370 427 372 441 486 436 473 454 371 470 523 506 142 78 239 446 530 573 669 632 578 515 541 794 896 785 653 569 584 494 463 451 411 605 814 822 809 798 710 767 948 1013 934 900 881 916 924 857 737 611 597 434 342 203 169 194 301 280 230
283 0 0 0 0 6 11 13 14 10 13 174 94 60 46 6 1 0 0 0 0 21 0 3 2 103 335 457 485 351 331 326 469 579 470 503 497 331 304 392 390 368 364 276 489 542 533 482 484 503 535 568 621 623 605 485 440 411 314 271 260 382 538 720 764 743 788 962 905 859 833 801 805 854 830 588 483 506 433 357 13 0 208 226 224 170
4 0 0 0 0 8 18 26 22 11 8 133 106 144 22 1 0 2 3 5 0 0 0 1 22 106 142 183 336 337 308 369 448 420 380 412 317 242 374 470 484 386 96 0 0 106 309 292 391 468 434 446 461 454 478 408 430 430 536 500 311 393 464 536 690 750 774 922 914 747 681 648 726 806 659 482 449 414 357 107 56 150 275 264 238 183
11 2 17 0 0 5 17 14 54 15 63 6 72 65 37 8 0 0 21 0 18 90 0 0 167 104 193 159 351 361 325 359 389 440 418 438 492 493 436 414 410 22 0 0 0 38 0 298 268 328 320 270 259 299 345 374 382 310 265 280 364 374 430 625 563 99 572 750 812 682 621 641 692 712 554 500 326 324 190 4 214 214 283 266 211 156
106 63 0 20 0 1 15 49 42 52 39 129 101 59 72 20 2 0 0 0 20 49 3 67 153 208 207 196 264 72 378 414 417 442 534 574 602 555 461 328 142 0 0 0 0 4 1 65 155 36 0 1 3 5 4 0 0 1 35 124 211 180 294 360 352 385 437 625 696 610 618 670 714 648 575 462 367 211 48 5 236 95 336 160 205 147
98 126 77 72 68 111 154 177 122 19 69 132 53 38 0 0 0 0 0 5 0 4 66 121 208 240 196 124 87 59 169 224 350 398 402 367 370 380 334 268 0 0 68 68 54 0 16 122 125 70 0 1 2 3 0 0 0 1 5 47 127 177 199 223 258 247 276 495 651 637 700 698 771 643 531 516 340 230 208 222 46 266 134 206 199 158
140 227 56 76 84 85 97 91 36 40 76 160 172 118 23 0 0 21 16 2 0 0 10 229 229 187 90 20 88 3 68 132 202 195 222 259 285 270 101 0 0 0 36 280 253 212 193 205 185 153 141 112 1 1 1 0 0 1 24 83 131 136 149 144 190 212 244 352 474 535 660 667 582 544 500 475 246 130 139 141 64 104 73 205 194 149
114 182 68 44 69 73 30 40 69 42 32 17 91 271 226 22 103 33 0 0 7 2 60 148 28 5 4 4 1 4 7 75 88 118 49 0 60 8 40 86 120 62 59 278 297 286 171 2 2 0 0 1 0 0 1 1 0 2 54 71 114 228 166 126 159 204 156 191 444 487 473 529 516 439 438 352 224 194 193 80 46 58 66 156 145 151
2 216 85 90 139 90 97 64 71 59 52 33 15 2 205 230 182 150 0 2 5 148 172 115 0 0 2 2 0 3 2 2 9 59 133 174 188 156 60 83 76 253 344 334 426 354 5 3 0 1 2 1 0 0 1 2 1 1 99 158 37 50 26 57 204 30 33 187 364 352 356 432 414 342 320 231 162 103 52 10 81 118 137 102 73 127
0 96 77 87 66 54 54 68 29 30 31 28 8 141 178 226 184 143 142 10 0 164 134 96 12 8 2 1 1 0 0 10 62 85 56 0 0 0 4 38 104 172 344 394 375 207 5 1 1 1 1 1 1 1 1 16 24 0 20 115 139 18 115 70 28 64 32 29 138 300 314 307 347 307 172 77 47 48 23 31 62 76 57 0 64 142
0 0 20 28 28 26 7 15 59 22 11 2 30 22 0 0 0 29 22 19 18 61 34 16 20 14 26 6 3 1 2 8 55 1 108 1 14 92 44 67 117 245 281 267 282 246 0 1 0 0 0 0 2 4 6 10 3 0 3 35 92 108 46 24 0 24 11 118 57 227 212 192 202 132 46 61 69 10 0 40 0 0 0 17 84 90
6 6 1 0 2 0 1 4 33 74 26 4 8 0 0 2 22 94 13 56 70 38 69 33 34 16 1 0 1 0 1 1 4 9 33 11 18 101 33 0 53 98 18 100 117 189 169 101 37 7 0 0 2 4 0 0 0 0 1 7 63 112 27 73 60 42 22 35 58 99 204 125 81 78 33 32 16 8 0 0 4 0 23 60 68 82
17 0 1 1 4 6 3 0 1 3 0 0 0 0 0 0 15 30 69 41 60 33 56 64 58 43 11 6 33 10 4 2 2 17 2 7 50 73 42 2 9 16 14 49 75 114 165 104 22 4 5 3 1 0 0 0 0 0 1 2 34 77 97 69 41 18 19 39 41 32 158 110 57 21 28 15 4 7 4 12 1 0 54 68 69 46
19 8 105 28 14 42 31 19 1 0 0 0 0 0 0 0 0 7 29 38 54 14 57 54 69 109 136 156 118 70 36 8 4 4 33 42 1 6 12 0 18 40 65 82 1 29 64 38 6 8 8 7 4 0 0 0 1 2 2 4 15 20 36 67 86 4 38 81 99 74 146 71 42 47 22 15 9 5 0 0 19 41 13 45 9 0
111 68 53 22 10 76 15 1 2 0 0 0 0 0 0 0 0 0 1 2 2 3 2 19 28 15 24 57 44 50 25 5 7 11 2 3 1 0 2 2 4 23 124 164 109 10 0 1 1 0 2 0 0 0 0 1 3 3 3 2 2 27 11 16 17 23 67 51 21 16 36 158 96 37 24 20 11 12 14 15 26 38 45 0 0 0
147 190 70 36 14 3 15 8 7 5 1 0 1 0 2 0 0 2 0 0 8 0 0 0 0 1 1 1 1 4 29 3 4 20 5 1 2 0 0 8 39 38 66 102 123 89 49 9 1 2 1 2 0 0 0 2 3 3 1 2 16 39 18 15 51 30 21 6 12 33 34 87 61 39 23 20 12 14 24 38 45 7 0 44 58 61
110 42 80 9 34 0 4 4 6 5 1 0 0 0 0 2 0 0 0 0 8 0 0 0 3 1 1 1 1 3 3 5 9 7 3 6 2 1 8 15 2 7 13 40 90 108 69 41 6 1 3 5 0 0 0 1 2 2 2 8 15 15 5 3 0 0 1 6 2 9 17 58 54 33 28 22 10 23 33 23 0 16 24 67 51 71
32 36 39 24 4 0 5 0 2 0 0 0 0 0 0 0 0 0 0 0 2 4 0 0 1 2 1 4 7 7 9 9 7 6 6 11 4 8 12 9 21 30 4 8 21 13 16 34 14 3 1 0 0 0 0 1 3 3 3 4 1 1 3 2 0 0 0 0 1 2 3 15 26 49 3 5 15 28 26 0 6 32 5 41 63 58
22 50 21 56 6 8 6 1 0 0 1 0 0 0 1 1 0 0 0 0 0 0 0 0 2 4 2 4 6 8 7 9 6 7 9 4 12 12 16 12 15 14 12 16 27 4 0 1 2 0 0 0 4 2 0 0 0 1 1 0 4 7 8 8 3 3 2 6 8 3 8 17 7 1 4 12 19 10 13 13 15 12 12 33 40 54
30 40 13 14 21 26 6 8 0 0 0 0 0 0 0 0 0 0 0 0 0 1 0 1 2 4 4 4 4 8 6 3 1 4 6 10 15 17 16 13 4 5 15 5 4 2 2 1 3 0 4 5 8 8 1 0 0 0 0 0 1 3 0 6 4 3 8 9 4 7 8 14 12 7 7 3 3 8 9 7 5 8 10 5 0 0
28 24 20 20 3 0 2 0 0 0 0 0 0 0 0 0 0 0 1 1 0 0 1 2 2 2 2 9 13 17 16 13 8 7 11 7 8 13 18 24 22 16 15 17 6 1 0 2 8 7 6 5 7 12 3 0 0 0 0 0 1 2 0 0 2 0 0 2 0 8 9 12 13 17 13 22 24 23 17 13 15 13 9 8 10 4
26 6 15 3 0 4 0 0 0 0 0 0 0 0 0 0 0 1 0 1 3 1 1 1 1 1 1 2 6 8 13 17 19 16 14 12 8 11 11 18 16 11 10 11 7 2 0 1 1 3 4 2 0 4 10 0 0 3 2 6 8 8 6 0 1 4 0 0 1 1 0 0 4 4 6 18 22 26 30 21 15 11 7 6 8 4
0 0 0 1 0 0 0 0 0 0 0 0 0 1 3 1 0 0 0 1 1 3 1 0 0 1 0 2 4 6 11 15 14 6 4 4 7 6 6 5 8 10 6 4 1 2 2 3 6 7 10 6 5 8 4 0 3 13 12 13 16 18 15 8 5 7 4 0 0 0 0 0 0 0 0 1 2 3 4 3 2 2 1 2 2 0
0 0 0 0 0 1 2 2 2 0 0 1 0 1 1 0 0 0 0 4 4 1 2 6 2 1 3 1 0 3 6 4 4 3 1 1 5 6 8 12 12 6 2 1 2 3 12 18 11 4 6 3 5 6 5 2 2 5 8 12 19 22 26 20 19 7 2 0 0 4 4 1 0 1 2 1 1 3 4 1 2 4 3 2 4 2
2 0 0 0 0 0 0 1 0 1 1 2 1 0 0 0 0 0 1 0 1 0 0 1 2 0 0 0 0 1 2 0 0 0 0 0 1 14 3 5 6 5 1 0 0 9 9 5 4 3 1 0 1 6 10 9 7 10 11 10 15 19 17 21 20 18 15 14 14 13 6 6 6 1 0 0 1 0 0 0 0 0 0 0 0 3
0 0 0 0 0 0 0 0 1 2 3 3 2 0 0 0 0 0 2 0 0 1 1 1 1 2 0 0 0 1 1 2 1 0 0 0 0 2 3 0 1 2 2 1 0 1 4 2 2 0 0 0 2 6 9 9 10 8 14 5 0 1 10 12 13 12 11 8 10 7 4 4 6 6 1 0 0 0 0 0 0 0 0 0 0 0
0 0 2 0 0 2 0 1 2 2 1 1 4 0 0 0 0 0 0 0 0 0 0 0 0 0 0 0 0 0 0 0 0 0 0 1 0 0 0 0 0 1 0 0 0 0 0 0 1 0 0 0 1 4 6 8 6 11 13 19 13 0 0 3 5 0 1 4 4 3 2 1 2 4 1 0 0 0 0 0 0 0 0 0 0 0
0 0 0 0 1 2 12 2 0 0 1 1 3 0 0 0 0 0 0 0 1 0 0 0 0 1 0 0 0 0 0 0 0 0 0 0 0 0 0 0 0 1 1 0 0 0 0 0 3 3 4 5 3 1 0 2 2 2 5 7 6 4 2 2 1 0 0 0 0 0 0 0 0 2 1 0 0 0 0 0 0 0 0 0 0 0
0 0 0 0 0 1 0 0 0 0 0 0 0 0 0 0 0 0 0 0 0 0 0 0 0 0 0 0 0 2 2 0 0 0 0 0 0 0 0 0 0 0 0 0 0 0 0 0 0 5 2 0 0 0 0 0 0 0 0 0 4 1 0 0 3 4 0 0 0 0 0 0 0 0 0 0 0 0 0 0 0 0 0 0 0 0
Wind_Speed
nan nan nan nan nan nan nan nan nan nan nan nan nan nan nan nan nan nan nan nan nan nan nan nan nan nan nan nan nan nan 24 22 23 22 20 18 17 15 14 15 17 19 19 20 24 29 32 31 29 28 27 28 29 30 30 30 28 30 32 36 36 33 29 27 26 25 26 22 21 19 19 17 15 15 14 12 11 10 9 11 12 10 9 8 8 9
nan nan nan nan nan nan nan nan nan nan nan nan nan nan nan nan nan nan nan nan nan nan nan nan nan nan nan nan nan nan nan 20 15 17 20 20 16 16 18 18 18 20 18 21 24 28 31 31 31 31 30 32 34 30 29 27 26 28 33 35 34 32 29 26 23 24 25 23 22 19 15 15 15 14 13 12 10 9 8 9 10 8 8 7 8 9
nan nan nan nan nan nan nan nan nan nan nan nan nan nan nan nan nan nan nan nan nan nan nan nan nan nan nan nan nan nan nan nan 18 22 23 25 20 18 19 18 20 21 20 21 23 27 30 33 34 32 32 32 35 34 28 27 29 30 31 33 33 31 28 27 23 21 22 22 22 20 16 16 14 10 12 11 11 10 9 7 8 8 7 7 7 9
nan nan nan nan nan nan nan nan nan nan nan nan nan nan nan nan nan nan nan nan nan nan nan nan nan nan nan nan nan nan nan nan nan 23 25 26 27 25 23 22 21 20 23 25 26 29 30 34 35 35 34 33 34 31 25 28 30 28 30 30 30 29 26 27 24 20 18 24 25 24 22 18 16 14 14 14 11 9 7 6 8 9 9 8 9 10
nan nan nan nan nan nan nan nan nan nan nan nan nan nan nan nan nan nan nan nan nan nan nan nan nan nan nan nan nan nan nan nan nan 23 20 18 24 26 24 21 21 23 23 26 26 28 31 35 36 37 35 33 32 27 25 30 30 27 30 30 29 27 26 26 25 21 19 24 25 23 24 21 20 16 13 11 8 5 3 5 7 6 8 8 10 12
nan nan nan nan nan nan nan nan nan nan nan nan nan nan nan nan nan nan nan nan nan nan nan nan nan nan nan nan nan nan nan nan nan 24 17 16 17 21 20 18 17 16 22 28 28 32 33 35 36 36 34 31 28 25 26 30 30 29 28 28 27 26 25 24 24 22 21 21 24 23 22 21 18 14 10 7 8 7 5 4 7 7 7 9 11 12
nan nan nan nan nan nan nan nan nan nan nan nan nan nan nan nan nan nan nan nan nan nan nan nan nan nan nan nan nan nan nan nan nan nan nan 20 22 20 17 17 19 23 26 31 31 30 32 32 32 30 30 28 27 21 31 31 29 29 29 29 29 25 23 22 22 23 21 21 22 22 22 22 20 17 11 10 9 8 7 9 9 7 7 10 12 13
nan nan nan nan nan nan nan nan nan nan nan nan nan nan nan nan nan nan nan nan nan nan nan nan nan nan nan nan nan nan nan nan nan nan nan nan nan 21 22 25 27 30 31 32 31 30 29 30 32 31 29 26 23 21 31 32 29 25 24 24 25 22 21 22 24 23 20 21 23 22 22 22 20 15 13 11 10 10 9 9 12 10 8 10 11 13
nan nan nan nan nan nan nan nan nan nan nan nan nan nan nan nan nan nan nan nan nan nan nan nan nan nan nan nan nan nan 32 27 24 23 28 31 34 36 37 35 35 33 31 30 30 29 29 31 33 32 28 23 18 26 31 35 32 25 23 22 21 17 19 23 23 21 20 20 23 23 22 22 20 18 14 13 12 11 10 9 11 11 10 11 13 13
nan nan nan nan nan nan nan nan nan nan nan nan nan nan nan nan nan nan nan nan nan nan nan nan nan nan nan nan 31 27 33 28 21 23 28 31 33 34 34 35 36 36 34 33 30 27 28 30 31 29 27 21 18 24 23 33 36 34 31 27 23 21 23 24 22 21 21 21 23 23 22 22 21 19 16 14 13 12 12 12 9 10 11 13 14 13
nan nan nan nan nan nan nan nan nan nan nan nan nan nan nan nan nan nan nan nan nan nan nan nan nan nan nan 34 32 33 27 24 23 25 27 28 30 32 33 33 33 33 34 33 33 33 33 32 35 36 32 24 22 20 20 28 34 37 38 34 29 24 28 28 25 24 23 22 22 21 22 23 22 20 18 16 15 14 13 14 12 11 11 14 12 12
nan nan nan nan nan nan nan nan nan nan nan nan nan nan nan nan nan nan nan nan nan nan nan nan nan nan nan 36 37 34 31 30 30 29 29 30 30 30 29 31 32 34 35 35 37 38 39 41 39 37 35 31 26 22 19 25 29 32 37 35 30 26 23 21 21 21 22 23 23 22 22 23 23 22 19 16 15 14 13 14 13 11 14 15 14 12
nan nan nan nan nan nan nan nan nan nan nan nan nan nan nan nan nan nan nan nan nan nan nan nan nan nan 40 39 38 36 37 37 35 31 28 28 28 29 31 31 31 30 30 33 37 40 41 44 44 41 36 33 29 23 21 25 29 27 28 32 26 20 16 18 20 18 20 22 22 23 23 23 24 22 20 18 16 14 13 13 13 14 15 18 17 14
nan nan nan nan nan nan nan nan nan nan nan nan nan nan nan nan nan nan nan nan nan nan nan nan nan nan 30 36 35 36 36 35 35 32 30 31 31 31 30 30 31 31 31 32 34 35 37 39 38 37 35 32 29 25 24 25 28 32 29 27 29 27 25 22 21 21 21 22 22 23 24 23 23 22 21 18 16 15 15 15 15 15 17 20 17 16
nan nan nan nan nan nan nan nan nan nan nan nan nan nan nan nan nan nan nan nan nan nan nan nan nan nan 30 29 26 31 32 33 32 31 31 32 31 32 33 34 34 32 33 33 34 34 32 31 30 29 28 28 28 26 25 25 28 30 30 28 30 31 25 23 21 20 20 20 22 24 26 25 26 24 20 16 15 17 18 18 17 17 19 21 19 18
nan nan nan nan nan nan nan nan nan nan nan nan nan nan nan nan nan nan nan nan nan nan nan nan nan 26 32 28 30 30 29 32 31 32 34 34 33 33 34 34 33 31 32 32 33 34 32 29 28 27 24 24 24 25 24 28 30 29 30 31 31 27 23 22 23 22 23 24 27 29 31 30 26 22 19 16 15 18 21 21 21 20 22 23 22 21
nan nan nan nan nan nan nan nan nan nan nan nan nan nan nan nan nan nan nan nan nan nan nan 24 27 26 26 30 33 31 33 31 31 32 36 37 35 35 33 32 31 30 32 31 31 31 31 31 29 27 25 24 24 25 23 25 29 30 29 29 27 26 23 24 25 29 31 31 30 33 35 30 22 17 16 15 18 22 25 24 19 21 22 22 23 21
nan nan nan nan nan nan nan nan nan nan nan nan nan nan nan nan nan nan nan nan nan nan nan nan 22 22 27 25 25 31 33 31 33 33 33 33 34 36 34 33 32 32 31 31 32 30 29 29 30 28 26 25 24 24 23 24 28 31 29 24 25 28 27 27 32 36 32 25 25 30 26 22 20 17 16 20 23 25 21 15 18 21 21 19 19 22
nan nan nan nan nan nan nan nan nan nan nan nan nan nan nan nan nan nan nan nan nan nan nan nan 25 25 26 26 24 29 31 32 33 33 34 35 34 34 33 34 34 35 34 32 31 30 28 27 25 24 24 24 24 25 24 22 24 27 25 23 21 25 28 27 27 24 24 25 23 23 20 19 20 21 23 24 23 20 19 18 19 19 18 18 17 24
nan nan nan nan nan nan nan nan nan nan nan nan nan nan nan nan nan nan nan nan nan nan nan nan nan nan 26 26 25 27 31 33 35 36 36 35 33 32 33 32 34 34 34 32 29 27 27 26 26 25 24 23 23 24 23 21 20 18 19 19 17 19 25 26 24 21 21 20 21 22 20 18 20 23 25 24 21 19 18 20 20 20 18 14 20 24
nan nan nan nan nan nan nan nan nan nan nan nan nan nan nan nan nan nan nan nan nan nan nan nan nan nan 24 23 26 26 28 31 33 35 32 32 33 33 34 34 34 35 33 30 28 25 25 23 22 22 22 23 24 22 22 21 14 11 9 11 12 14 17 19 16 15 16 19 21 20 17 17 20 23 24 24 23 23 18 18 18 17 13 17 25 26
nan nan nan nan nan nan nan nan nan nan nan nan nan nan nan nan nan nan nan nan nan nan nan nan nan nan 22 26 29 28 29 32 31 31 31 32 33 30 27 29 31 30 27 23 23 22 21 22 21 20 20 20 21 21 20 18 16 13 8 3 7 11 12 11 11 11 12 14 19 17 15 16 20 24 24 24 24 23 19 17 nan 18 17 22 25 25
nan nan nan nan nan nan nan nan nan nan nan nan nan nan nan nan nan nan nan nan nan nan nan nan 30 nan nan 28 30 31 31 31 29 29 29 29 31 30 26 26 nan 26 21 19 20 18 18 19 20 19 20 19 19 18 18 18 19 16 8 2 5 8 11 12 13 13 14 15 17 15 13 16 21 22 22 24 25 23 19 18 19 18 20 26 24 25
34 nan nan nan nan nan nan nan nan nan nan 31 nan nan nan nan nan nan nan nan nan nan nan nan nan 25 25 31 31 32 29 26 25 25 27 27 27 27 27 25 24 24 22 22 20 19 18 17 18 19 19 18 17 17 17 16 17 17 13 8 7 11 14 16 16 15 12 12 13 14 15 19 20 20 20 21 22 23 21 18 nan nan 25 27 25 26
nan nan nan nan nan nan nan nan nan nan nan 31 33 38 nan nan nan nan nan nan nan nan nan nan nan 26 28 34 32 34 31 29 26 24 23 27 25 23 22 21 21 20 nan nan nan 19 18 19 20 18 17 16 16 15 15 15 15 14 14 12 11 11 15 15 16 14 7 8 12 14 15 19 18 19 21 23 22 25 22 20 nan 22 28 27 26 27
nan nan nan nan nan nan nan nan nan nan nan nan nan nan nan nan nan nan nan nan nan nan nan nan 32 30 36 35 35 34 32 30 27 24 22 22 23 23 23 22 21 nan nan nan nan nan nan 17 17 18 19 17 16 15 13 13 15 14 14 13 11 9 10 14 16 nan 11 12 14 13 14 16 18 19 22 24 26 27 25 nan 25 24 27 25 27 28
31 nan nan nan nan nan nan nan nan nan nan 38 36 nan nan nan nan nan nan nan nan nan nan nan 34 38 37 36 35 nan 29 28 27 26 24 20 20 21 21 22 22 nan nan nan nan nan nan nan 18 nan nan nan nan nan nan nan nan nan nan 13 12 10 7 15 15 14 14 14 13 14 15 15 17 21 23 24 26 26 nan nan 21 nan 25 26 30 30
nan 36 nan nan nan 33 35 39 35 nan nan 36 nan nan nan nan nan nan nan nan nan nan nan 31 35 40 38 38 nan nan 30 28 27 27 27 24 21 19 19 19 nan nan nan nan nan nan nan 17 16 nan nan nan nan nan nan nan nan nan nan nan 12 11 9 11 14 16 17 17 17 19 17 14 17 22 24 24 25 23 22 24 nan 25 25 29 32 30
33 33 nan nan nan nan nan nan nan nan nan 40 43 41 nan nan nan nan nan nan nan nan nan 30 35 37 nan nan nan nan nan 30 29 29 27 24 23 23 21 nan nan nan nan 24 22 21 19 18 17 17 17 17 nan nan nan nan nan nan nan nan 12 12 12 14 15 14 16 17 20 22 16 15 19 22 22 24 25 23 22 24 nan 27 nan 30 32 31
38 37 nan nan nan nan nan nan nan nan nan nan nan 44 41 nan 43 nan nan nan nan nan nan 39 nan nan nan nan nan nan nan nan nan 25 nan nan nan nan nan nan 26 nan nan 25 23 22 20 nan nan nan nan nan nan nan nan nan nan nan nan nan 14 13 14 17 17 15 18 18 19 18 17 19 22 23 22 22 22 24 27 nan nan nan nan 35 35 31
nan 37 nan nan 39 nan nan nan nan nan nan nan nan nan 42 39 43 42 nan nan nan 44 42 41 nan nan nan nan nan nan nan nan nan nan 21 23 25 26 nan nan nan 25 25 24 24 23 nan nan nan nan nan nan nan nan nan nan nan nan nan 16 nan nan nan nan 21 nan nan 15 16 18 18 20 23 23 20 20 22 25 nan nan nan 30 32 32 nan 30
nan nan nan nan nan nan nan nan nan nan nan nan nan 49 46 40 40 38 37 nan nan 36 39 nan nan nan nan nan nan nan nan nan nan nan nan nan nan nan nan nan 25 24 25 25 23 22 nan nan nan nan nan nan nan nan nan nan nan nan nan 15 16 nan 17 nan nan nan nan nan 14 16 19 22 25 25 23 nan nan nan nan nan nan nan nan nan nan 28
nan nan nan nan nan nan nan nan nan nan nan nan nan nan nan nan nan nan nan nan nan nan nan nan nan nan nan nan nan nan nan nan nan nan 29 nan nan nan nan nan 25 25 25 26 24 22 nan nan nan nan nan nan nan nan nan nan nan nan nan nan nan 16 nan nan nan nan nan 15 nan 13 16 19 23 24 nan nan nan nan nan nan nan nan nan nan nan nan
nan nan nan nan nan nan nan nan nan nan nan nan nan nan nan nan nan nan nan nan nan nan nan nan nan nan nan nan nan nan nan nan nan nan nan nan nan 27 nan nan nan nan nan nan 23 23 21 20 nan nan nan nan nan nan nan nan nan nan nan nan nan 19 nan nan nan nan nan nan nan nan 16 19 nan nan nan nan nan nan nan nan nan nan nan nan nan nan
nan nan nan nan nan nan nan nan nan nan nan nan nan nan nan nan nan nan nan nan nan nan nan nan nan nan nan nan nan nan nan nan nan nan nan nan nan nan nan nan nan nan nan nan nan 24 23 21 nan nan nan nan nan nan nan nan nan nan nan nan nan nan nan nan nan nan nan nan nan nan 23 23 nan nan nan nan nan nan nan nan nan nan nan nan nan nan
nan nan 32 nan nan nan nan nan nan nan nan nan nan nan nan nan nan nan nan nan nan nan nan nan nan 36 36 34 32 nan nan nan nan nan nan nan nan nan nan nan nan nan nan nan nan nan nan nan nan nan nan nan nan nan nan nan nan nan nan nan nan nan nan nan nan nan nan nan nan nan 29 nan nan nan nan nan nan nan nan nan nan nan nan nan nan nan
28 nan nan nan nan nan nan nan nan nan nan nan nan nan nan nan nan nan nan nan nan nan nan nan nan nan nan nan nan nan nan nan nan nan nan nan nan nan nan nan nan nan 28 26 25 nan nan nan nan nan nan nan nan nan nan nan nan nan nan nan nan nan nan nan nan nan nan nan nan nan nan 33 nan nan nan nan nan nan nan nan nan nan nan nan nan nan
28 28 nan nan nan nan nan nan nan nan nan nan nan nan nan nan nan nan nan nan nan nan nan nan nan nan nan nan nan nan nan nan nan nan nan nan nan nan nan nan nan nan nan 28 27 nan nan nan nan nan nan nan nan nan nan nan nan nan nan nan nan nan nan nan nan nan nan nan nan nan nan nan nan nan nan nan nan nan nan nan nan nan nan nan nan nan
32 nan nan nan nan nan nan nan nan nan nan nan nan nan nan nan nan nan nan nan nan nan nan nan nan nan nan nan nan nan nan nan nan nan nan nan nan nan nan nan nan nan nan nan nan 30 nan nan nan nan nan nan nan nan nan nan nan nan nan nan nan nan nan nan nan nan nan nan nan nan nan nan nan nan nan nan nan nan nan nan nan nan nan nan nan nan
nan nan nan nan nan nan nan nan nan nan nan nan nan nan nan nan nan nan nan nan nan nan nan nan nan nan nan nan nan nan nan nan nan nan nan nan nan nan nan nan nan nan nan nan nan nan nan nan nan nan nan nan nan nan nan nan nan nan nan nan nan nan nan nan nan nan nan nan nan nan nan nan nan nan nan nan nan nan nan nan nan nan nan nan nan nan
nan nan nan nan nan nan nan nan nan nan nan nan nan nan nan nan nan nan nan nan nan nan nan nan nan nan nan nan nan nan nan nan nan nan nan nan nan nan nan nan nan nan nan nan nan nan nan nan nan nan nan nan nan nan nan nan nan nan nan nan nan nan nan nan nan nan nan nan nan nan nan nan nan nan nan nan nan nan nan nan nan nan nan nan nan nan
nan nan nan nan nan nan nan nan nan nan nan nan nan nan nan nan nan nan nan nan nan nan nan nan nan nan nan nan nan nan nan nan nan nan nan nan nan nan nan nan nan nan nan nan nan nan nan nan nan nan nan nan nan nan nan nan nan nan nan nan nan nan nan nan nan nan nan nan nan nan nan nan nan nan nan nan nan nan nan nan nan nan nan nan nan nan
nan nan nan nan nan nan nan nan nan nan nan nan nan nan nan nan nan nan nan nan nan nan nan nan nan nan nan nan nan nan nan nan nan nan nan nan nan nan nan nan nan nan nan nan nan nan nan nan nan nan nan nan nan nan nan nan nan nan nan nan nan nan nan nan nan nan nan nan nan nan nan nan nan nan nan nan nan nan nan nan nan nan nan nan nan nan
nan nan nan nan nan nan nan nan nan nan nan nan nan nan nan nan nan nan nan nan nan nan nan nan nan nan nan nan nan nan nan nan nan nan nan nan nan nan nan nan nan nan nan nan nan nan nan nan nan nan nan nan nan nan nan nan nan nan nan nan nan nan nan nan nan nan nan nan nan nan nan nan nan nan nan nan nan nan nan nan nan nan nan nan nan nan
nan nan nan nan nan nan nan nan nan nan nan nan nan nan nan nan nan nan nan nan nan nan nan nan nan nan nan nan nan nan nan nan nan nan nan nan nan nan nan nan nan nan nan nan nan nan nan nan nan nan nan nan nan nan nan nan nan nan nan nan nan nan nan nan nan nan nan nan nan nan nan nan nan nan nan nan nan nan nan nan nan nan nan nan nan nan
nan nan nan nan nan nan nan nan nan nan nan nan nan nan nan nan nan nan nan nan nan nan nan nan nan nan nan nan nan nan nan nan nan nan nan nan nan nan nan nan nan nan nan nan nan nan nan nan nan nan nan nan nan nan nan nan nan nan nan nan nan nan nan nan nan nan nan nan nan nan nan nan nan nan nan nan nan nan nan nan nan nan nan nan nan nan
nan nan nan nan nan nan nan nan nan nan nan nan nan nan nan nan nan nan nan nan nan nan nan nan nan nan nan nan nan nan nan nan nan nan nan nan nan nan nan nan nan nan nan nan nan nan nan nan nan nan nan nan nan nan nan nan nan nan nan nan nan nan nan nan nan nan nan nan nan nan nan nan nan nan nan nan nan nan nan nan nan nan nan nan nan nan
nan nan nan nan nan nan nan nan nan nan nan nan nan nan nan nan nan nan nan nan nan nan nan nan nan nan nan nan nan nan nan nan nan nan nan nan nan nan nan nan nan nan nan nan nan nan nan nan nan nan nan nan nan nan nan nan nan nan nan nan nan nan nan nan nan nan nan nan nan nan nan nan nan nan nan nan nan nan nan nan nan nan nan nan nan nan
nan nan nan nan nan nan nan nan nan nan nan nan nan nan nan nan nan nan nan nan nan nan nan nan nan nan nan nan nan nan nan nan nan nan nan nan nan nan nan nan nan nan nan nan nan nan nan nan nan nan nan nan nan nan nan nan nan nan nan nan nan nan nan nan nan nan nan nan nan nan nan nan nan nan nan nan nan nan nan nan nan nan nan nan nan nan
nan nan nan nan nan nan nan nan nan nan nan nan nan nan nan nan nan nan nan nan nan nan nan nan nan nan nan nan nan nan nan nan nan nan nan nan nan nan nan nan nan nan nan nan nan nan nan nan nan nan nan nan nan nan nan nan nan nan nan nan nan nan nan nan nan nan nan nan nan nan nan nan nan nan nan nan nan nan nan nan nan nan nan nan nan nan
nan nan nan nan nan nan nan nan nan nan nan nan nan nan nan nan nan nan nan nan nan nan nan nan nan nan nan nan nan nan nan nan nan nan nan nan nan nan nan nan nan nan nan nan nan nan nan nan nan nan nan nan nan nan nan nan nan nan nan nan nan nan nan nan nan nan nan nan nan nan nan nan nan nan nan nan nan nan nan nan nan nan nan nan nan nan
Wind_Direction
nan nan nan nan nan nan nan nan nan nan nan nan nan nan nan nan nan nan nan nan nan nan nan nan nan nan nan nan nan nan 256 257 282 292 297 299 307 311 301 303 299 294 297 292 292 288 292 294 292 286 280 275 273 275 281 286 293 292 289 290 294 298 304 306 306 300 298 299 294 287 284 280 288 288 276 272 278 276 265 267 264 264 267 260 257 268
nan nan nan nan nan nan nan nan nan nan nan nan nan nan nan nan nan nan nan nan nan nan nan nan nan nan nan nan nan nan nan 270 273 287 290 293 296 301 302 303 305 290 274 282 282 284 291 292 290 284 280 280 279 279 282 291 296 292 293 294 295 297 304 305 303 296 292 297 304 298 292 284 298 292 280 276 274 269 259 264 264 266 271 267 262 266
nan nan nan nan nan nan nan nan nan nan nan nan nan nan nan nan nan nan nan nan nan nan nan nan nan nan nan nan nan nan nan nan 290 298 306 302 298 295 296 296 288 283 290 287 282 284 291 294 290 284 281 282 285 286 289 288 286 292 292 293 295 299 303 302 295 288 287 287 291 293 287 302 299 280 262 265 261 263 264 261 261 261 265 271 264 264
nan nan nan nan nan nan nan nan nan nan nan nan nan nan nan nan nan nan nan nan nan nan nan nan nan nan nan nan nan nan nan nan nan 299 301 303 307 309 305 301 301 300 298 302 298 292 291 290 283 279 279 278 279 281 282 280 284 285 291 294 299 304 302 298 297 296 290 285 274 259 256 258 256 262 252 247 246 249 252 265 256 244 252 264 259 253
nan nan nan nan nan nan nan nan nan nan nan nan nan nan nan nan nan nan nan nan nan nan nan nan nan nan nan nan nan nan nan nan nan 282 284 292 305 310 307 304 308 318 315 296 284 283 280 276 277 281 283 282 279 282 283 279 281 282 293 298 303 305 305 296 295 298 281 276 275 266 258 254 256 258 252 244 246 262 255 257 262 265 254 256 249 246
nan nan nan nan nan nan nan nan nan nan nan nan nan nan nan nan nan nan nan nan nan nan nan nan nan nan nan nan nan nan nan nan nan 255 267 273 265 256 271 302 314 294 270 269 268 268 274 281 282 284 284 282 277 276 272 273 283 288 293 298 297 300 299 290 291 296 287 285 287 279 274 271 272 287 297 306 295 290 303 287 258 259 261 251 243 245
nan nan nan nan nan nan nan nan nan nan nan nan nan nan nan nan nan nan nan nan nan nan nan nan nan nan nan nan nan nan nan nan nan nan nan 256 253 256 272 282 275 268 269 274 281 284 282 284 286 286 287 284 280 284 272 277 284 290 294 297 299 300 298 286 282 288 287 285 285 285 281 278 280 295 294 281 278 289 278 253 264 273 266 256 253 246
nan nan nan nan nan nan nan nan nan nan nan nan nan nan nan nan nan nan nan nan nan nan nan nan nan nan nan nan nan nan nan nan nan nan nan nan nan 261 271 267 271 275 279 284 286 291 294 298 302 302 299 297 303 295 266 265 268 278 283 286 293 293 292 285 280 284 288 288 281 276 269 269 273 281 283 280 271 268 268 262 262 267 270 261 256 255
nan nan nan nan nan nan nan nan nan nan nan nan nan nan nan nan nan nan nan nan nan nan nan nan nan nan nan nan nan nan 250 235 235 237 230 231 238 244 254 259 265 270 272 278 288 296 299 300 301 303 306 307 304 261 255 256 251 246 251 258 255 256 269 274 278 280 279 275 275 270 263 261 256 260 262 259 262 269 271 265 256 265 260 252 252 255
nan nan nan nan nan nan nan nan nan nan nan nan nan nan nan nan nan nan nan nan nan nan nan nan nan nan nan nan 241 246 256 247 248 245 241 241 245 246 252 258 260 263 267 273 283 290 293 296 294 293 293 291 271 261 268 275 275 267 254 240 235 235 233 241 250 251 257 262 265 266 261 260 259 258 258 260 264 269 272 274 270 268 260 250 246 245
nan nan nan nan nan nan nan nan nan nan nan nan nan nan nan nan nan nan nan nan nan nan nan nan nan nan nan 246 246 250 255 262 262 257 248 243 241 246 251 255 262 268 272 277 278 279 284 288 290 292 295 291 271 268 272 277 282 287 281 258 234 235 233 233 228 228 243 251 260 268 267 265 264 263 264 265 265 266 274 280 279 272 262 250 244 243
nan nan nan nan nan nan nan nan nan nan nan nan nan nan nan nan nan nan nan nan nan nan nan nan nan nan nan 254 249 251 253 258 261 255 244 244 243 245 250 256 262 268 272 275 275 277 282 284 285 287 292 296 294 286 271 259 263 283 287 279 258 230 223 241 241 233 238 247 255 262 268 270 267 267 267 271 274 275 282 282 282 268 251 244 240 240
nan nan nan nan nan nan nan nan nan nan nan nan nan nan nan nan nan nan nan nan nan nan nan nan nan nan 242 249 249 249 253 252 251 250 247 250 252 252 256 259 262 266 268 272 278 282 285 289 293 293 295 302 305 295 276 266 260 259 279 289 278 278 286 286 277 268 259 253 256 263 265 265 266 267 269 271 272 272 276 277 279 268 250 242 239 232
nan nan nan nan nan nan nan nan nan nan nan nan nan nan nan nan nan nan nan nan nan nan nan nan nan nan 239 243 238 251 247 246 246 239 232 238 245 249 248 251 255 256 257 258 261 267 275 283 289 291 294 298 299 289 278 274 274 276 278 281 284 282 285 284 284 285 276 269 267 266 263 261 263 265 264 266 272 271 266 269 277 272 252 244 236 226
nan nan nan nan nan nan nan nan nan nan nan nan nan nan nan nan nan nan nan nan nan nan nan nan nan nan 247 246 247 248 246 246 244 242 240 241 241 245 250 254 257 259 259 257 258 263 266 269 275 280 283 281 278 278 280 276 278 280 283 277 276 280 279 276 274 280 279 266 262 260 256 252 242 242 243 257 268 271 264 260 270 267 247 239 231 225
nan nan nan nan nan nan nan nan nan nan nan nan nan nan nan nan nan nan nan nan nan nan nan nan nan 236 247 254 254 256 257 253 255 255 254 253 253 253 252 253 257 260 262 262 263 264 268 274 273 269 271 272 273 277 279 278 277 274 277 276 273 271 268 265 266 261 264 254 243 245 248 243 236 237 241 237 248 254 256 257 257 242 227 234 230 227
nan nan nan nan nan nan nan nan nan nan nan nan nan nan nan nan nan nan nan nan nan nan nan 223 226 230 236 245 244 248 251 251 254 257 259 260 260 259 259 260 262 263 263 265 266 265 265 268 273 274 274 274 274 275 278 281 281 278 270 265 264 261 257 258 258 260 255 246 240 242 247 255 252 244 246 246 243 247 240 236 247 243 211 217 235 232
nan nan nan nan nan nan nan nan nan nan nan nan nan nan nan nan nan nan nan nan nan nan nan nan 244 245 249 250 241 248 254 253 255 257 261 263 261 260 260 260 260 259 260 262 264 267 267 266 265 271 274 272 274 280 281 280 279 280 280 281 266 255 249 243 251 255 249 243 243 248 257 271 279 272 265 254 243 251 258 241 231 229 220 207 224 235
nan nan nan nan nan nan nan nan nan nan nan nan nan nan nan nan nan nan nan nan nan nan nan nan 229 232 244 248 245 253 258 257 258 258 257 254 253 255 257 256 258 261 261 260 259 256 254 254 257 257 258 261 263 276 280 282 280 278 282 287 277 256 249 247 250 253 239 242 248 249 251 254 255 257 255 256 260 274 276 254 239 226 217 216 219 237
nan nan nan nan nan nan nan nan nan nan nan nan nan nan nan nan nan nan nan nan nan nan nan nan nan nan 240 245 250 255 259 260 258 256 255 255 255 257 256 255 256 259 262 264 260 253 247 244 241 242 247 251 261 266 265 269 283 282 273 276 273 257 249 244 242 240 233 240 254 252 254 256 254 255 259 263 264 261 257 247 240 229 213 212 235 235
nan nan nan nan nan nan nan nan nan nan nan nan nan nan nan nan nan nan nan nan nan nan nan nan nan nan 246 246 254 255 254 257 259 258 258 260 260 261 263 262 259 259 259 260 256 248 243 240 236 236 240 244 247 255 258 264 283 304 288 264 261 260 244 239 239 232 225 240 249 260 269 273 266 266 264 263 256 259 258 250 242 239 222 226 239 235
nan nan nan nan nan nan nan nan nan nan nan nan nan nan nan nan nan nan nan nan nan nan nan nan nan nan 247 250 259 257 256 257 257 262 261 259 261 262 265 266 262 258 253 247 240 239 239 237 233 234 235 240 244 245 244 249 267 288 308 269 226 221 206 215 227 230 236 247 251 258 269 275 273 274 272 264 253 258 260 258 nan 240 227 244 246 243
nan nan nan nan nan nan nan nan nan nan nan nan nan nan nan nan nan nan nan nan nan nan nan nan 250 nan nan 258 260 258 258 259 260 265 266 264 264 263 265 266 nan 251 246 241 238 236 237 234 237 240 237 239 241 242 244 243 247 269 282 181 197 213 196 200 208 218 235 246 255 265 267 268 276 273 265 266 259 261 262 254 243 239 242 249 250 247
210 nan nan nan nan nan nan nan nan nan nan 209 nan nan nan nan nan nan nan nan nan nan nan nan nan 246 246 258 259 264 265 264 261 261 267 268 270 267 260 252 245 243 244 247 248 244 239 238 238 240 237 238 236 236 236 237 239 242 245 221 206 215 223 221 218 220 226 242 262 271 268 268 270 271 251 253 260 260 255 251 nan nan 243 253 249 248
nan nan nan nan nan nan nan nan nan nan nan 210 205 203 nan nan nan nan nan nan nan nan nan nan nan 248 251 258 259 261 260 258 258 261 266 267 267 270 267 259 254 255 nan nan nan 242 246 247 244 244 244 240 237 237 239 234 235 243 243 237 222 218 234 251 263 262 265 282 280 277 273 275 277 280 264 259 260 255 254 249 nan 228 250 250 246 245
nan nan nan nan nan nan nan nan nan nan nan nan nan nan nan nan nan nan nan nan nan nan nan nan 242 243 255 255 258 259 261 259 256 260 263 264 264 261 256 251 251 nan nan nan nan nan nan 251 252 247 245 244 241 239 236 233 230 225 226 231 244 252 288 294 297 nan 278 278 279 274 277 276 275 281 274 265 256 251 250 nan 226 234 249 246 242 243
211 nan nan nan nan nan nan nan nan nan nan 214 206 nan nan nan nan nan nan nan nan nan nan nan 257 261 258 256 256 nan 256 257 253 249 250 254 254 253 248 245 248 nan nan nan nan nan nan nan 240 nan nan nan nan nan nan nan nan nan nan 223 222 228 272 291 297 292 284 282 284 277 274 268 268 274 274 264 254 251 nan nan 231 nan 244 235 239 242
nan 217 nan nan nan 221 216 215 215 nan nan 215 nan nan nan nan nan nan nan nan nan nan nan 245 263 261 259 259 nan nan 257 254 250 248 247 247 245 243 241 242 nan nan nan nan nan nan nan 231 231 nan nan nan nan nan nan nan nan nan nan nan 237 240 244 277 293 300 304 303 294 281 271 270 266 270 272 263 253 249 238 225 nan 238 231 233 239 241
222 221 nan nan nan nan nan nan nan nan nan 227 224 220 nan nan nan nan nan nan nan nan nan 263 267 260 nan nan nan nan nan 257 253 250 248 244 241 240 243 nan nan nan nan 241 242 241 237 231 225 224 229 236 nan nan nan nan nan nan nan nan 244 254 258 282 285 288 297 291 280 279 279 268 266 262 266 260 244 236 228 225 nan 236 nan 233 239 239
222 217 nan nan nan nan nan nan nan nan nan nan nan 221 219 nan 222 nan nan nan nan nan nan 264 nan nan nan nan nan nan nan nan nan 249 nan nan nan nan nan nan 246 nan nan 240 240 240 239 nan nan nan nan nan nan nan nan nan nan nan nan nan 239 252 265 277 278 287 291 290 281 283 266 263 264 265 264 249 231 224 221 nan nan nan nan 232 239 245
nan 217 nan nan 232 nan nan nan nan nan nan nan nan nan 220 222 224 223 nan nan nan 240 251 258 nan nan nan nan nan nan nan nan nan nan 250 247 245 245 nan nan nan 243 242 242 239 238 nan nan nan nan nan nan nan nan nan nan nan nan nan 236 nan nan nan nan 277 nan nan 294 274 272 274 276 273 271 266 243 224 225 nan nan nan 237 235 239 nan 248
nan nan nan nan nan nan nan nan nan nan nan nan nan 223 220 223 228 222 227 nan nan 252 254 nan nan nan nan nan nan nan nan nan nan nan nan nan nan nan nan nan 243 243 243 242 240 239 nan nan nan nan nan nan nan nan nan nan nan nan nan 242 245 nan 252 nan nan nan nan nan 256 276 283 281 274 264 253 nan nan nan nan nan nan nan nan nan nan 246
nan nan nan nan nan nan nan nan nan nan nan nan nan nan nan nan nan nan nan nan nan nan nan nan nan nan nan nan nan nan nan nan nan nan 254 nan nan nan nan nan 242 242 242 241 240 239 nan nan nan nan nan nan nan nan nan nan nan nan nan nan nan 256 nan nan nan nan nan 240 nan 265 273 275 274 260 nan nan nan nan nan nan nan nan nan nan nan nan
nan nan nan nan nan nan nan nan nan nan nan nan nan nan nan nan nan nan nan nan nan nan nan nan nan nan nan nan nan nan nan nan nan nan nan nan nan 237 nan nan nan nan nan nan 242 243 241 244 nan nan nan nan nan nan nan nan nan nan nan nan nan 257 nan nan nan nan nan nan nan nan 257 262 nan nan nan nan nan nan nan nan nan nan nan nan nan nan
nan nan nan nan nan nan nan nan nan nan nan nan nan nan nan nan nan nan nan nan nan nan nan nan nan nan nan nan nan nan nan nan nan nan nan nan nan nan nan nan nan nan nan nan nan 240 241 243 nan nan nan nan nan nan nan nan nan nan nan nan nan nan nan nan nan nan nan nan nan nan 218 243 nan nan nan nan nan nan nan nan nan nan nan nan nan nan
nan nan 237 nan nan nan nan nan nan nan nan nan nan nan nan nan nan nan nan nan nan nan nan nan nan 260 263 263 260 nan nan nan nan nan nan nan nan nan nan nan nan nan nan nan nan nan nan nan nan nan nan nan nan nan nan nan nan nan nan nan nan nan nan nan nan nan nan nan nan nan 206 nan nan nan nan nan nan nan nan nan nan nan nan nan nan nan
239 nan nan nan nan nan nan nan nan nan nan nan nan nan nan nan nan nan nan nan nan nan nan nan nan nan nan nan nan nan nan nan nan nan nan nan nan nan nan nan nan nan 237 237 239 nan nan nan nan nan nan nan nan nan nan nan nan nan nan nan nan nan nan nan nan nan nan nan nan nan nan 212 nan nan nan nan nan nan nan nan nan nan nan nan nan nan
230 237 nan nan nan nan nan nan nan nan nan nan nan nan nan nan nan nan nan nan nan nan nan nan nan nan nan nan nan nan nan nan nan nan nan nan nan nan nan nan nan nan nan 240 240 nan nan nan nan nan nan nan nan nan nan nan nan nan nan nan nan nan nan nan nan nan nan nan nan nan nan nan nan nan nan nan nan nan nan nan nan nan nan nan nan nan
226 nan nan nan nan nan nan nan nan nan nan nan nan nan nan nan nan nan nan nan nan nan nan nan nan nan nan nan nan nan nan nan nan nan nan nan nan nan nan nan nan nan nan nan nan 242 nan nan nan nan nan nan nan nan nan nan nan nan nan nan nan nan nan nan nan nan nan nan nan nan nan nan nan nan nan nan nan nan nan nan nan nan nan nan nan nan
nan nan nan nan nan nan nan nan nan nan nan nan nan nan nan nan nan nan nan nan nan nan nan nan nan nan nan nan nan nan nan nan nan nan nan nan nan nan nan nan nan nan nan nan nan nan nan nan nan nan nan nan nan nan nan nan nan nan nan nan nan nan nan nan nan nan nan nan nan nan nan nan nan nan nan nan nan nan nan nan nan nan nan nan nan nan
nan nan nan nan nan nan nan nan nan nan nan nan nan nan nan nan nan nan nan nan nan nan nan nan nan nan nan nan nan nan nan nan nan nan nan nan nan nan nan nan nan nan nan nan nan nan nan nan nan nan nan nan nan nan nan nan nan nan nan nan nan nan nan nan nan nan nan nan nan nan nan nan nan nan nan nan nan nan nan nan nan nan nan nan nan nan
nan nan nan nan nan nan nan nan nan nan nan nan nan nan nan nan nan nan nan nan nan nan nan nan nan nan nan nan nan nan nan nan nan nan nan nan nan nan nan nan nan nan nan nan nan nan nan nan nan nan nan nan nan nan nan nan nan nan nan nan nan nan nan nan nan nan nan nan nan nan nan nan nan nan nan nan nan nan nan nan nan nan nan nan nan nan
nan nan nan nan nan nan nan nan nan nan nan nan nan nan nan nan nan nan nan nan nan nan nan nan nan nan nan nan nan nan nan nan nan nan nan nan nan nan nan nan nan nan nan nan nan nan nan nan nan nan nan nan nan nan nan nan nan nan nan nan nan nan nan nan nan nan nan nan nan nan nan nan nan nan nan nan nan nan nan nan nan nan nan nan nan nan
nan nan nan nan nan nan nan nan nan nan nan nan nan nan nan nan nan nan nan nan nan nan nan nan nan nan nan nan nan nan nan nan nan nan nan nan nan nan nan nan nan nan nan nan nan nan nan nan nan nan nan nan nan nan nan nan nan nan nan nan nan nan nan nan nan nan nan nan nan nan nan nan nan nan nan nan nan nan nan nan nan nan nan nan nan nan
nan nan nan nan nan nan nan nan nan nan nan nan nan nan nan nan nan nan nan nan nan nan nan nan nan nan nan nan nan nan nan nan nan nan nan nan nan nan nan nan nan nan nan nan nan nan nan nan nan nan nan nan nan nan nan nan nan nan nan nan nan nan nan nan nan nan nan nan nan nan nan nan nan nan nan nan nan nan nan nan nan nan nan nan nan nan
nan nan nan nan nan nan nan nan nan nan nan nan nan nan nan nan nan nan nan nan nan nan nan nan nan nan nan nan nan nan nan nan nan nan nan nan nan nan nan nan nan nan nan nan nan nan nan nan nan nan nan nan nan nan nan nan nan nan nan nan nan nan nan nan nan nan nan nan nan nan nan nan nan nan nan nan nan nan nan nan nan nan nan nan nan nan
nan nan nan nan nan nan nan nan nan nan nan nan nan nan nan nan nan nan nan nan nan nan nan nan nan nan nan nan nan nan nan nan nan nan nan nan nan nan nan nan nan nan nan nan nan nan nan nan nan nan nan nan nan nan nan nan nan nan nan nan nan nan nan nan nan nan nan nan nan nan nan nan nan nan nan nan nan nan nan nan nan nan nan nan nan nan
nan nan nan nan nan nan nan nan nan nan nan nan nan nan nan nan nan nan nan nan nan nan nan nan nan nan nan nan nan nan nan nan nan nan nan nan nan nan nan nan nan nan nan nan nan nan nan nan nan nan nan nan nan nan nan nan nan nan nan nan nan nan nan nan nan nan nan nan nan nan nan nan nan nan nan nan nan nan nan nan nan nan nan nan nan nan
nan nan nan nan nan nan nan nan nan nan nan nan nan nan nan nan nan nan nan nan nan nan nan nan nan nan nan nan nan nan nan nan nan nan nan nan nan nan nan nan nan nan nan nan nan nan nan nan nan nan nan nan nan nan nan nan nan nan nan nan nan nan nan nan nan nan nan nan nan nan nan nan nan nan nan nan nan nan nan nan nan nan nan nan nan nan
nan nan nan nan nan nan nan nan nan nan nan nan nan nan nan nan nan nan nan nan nan nan nan nan nan nan nan nan nan nan nan nan nan nan nan nan nan nan nan nan nan nan nan nan nan nan nan nan nan nan nan nan nan nan nan nan nan nan nan nan nan nan nan nan nan nan nan nan nan nan nan nan nan nan nan nan nan nan nan nan nan nan nan nan nan nan
nan nan nan nan nan nan nan nan nan nan nan nan nan nan nan nan nan nan nan nan nan nan nan nan nan nan nan nan nan nan nan nan nan nan nan nan nan nan nan nan nan nan nan nan nan nan nan nan nan nan nan nan nan nan nan nan nan nan nan nan nan nan nan nan nan nan nan nan nan nan nan nan nan nan nan nan nan nan nan nan nan nan nan nan nan nan